Change the Weather History Date:

Friday, December 21, 2012

  Actual Average Record
Temperature  
Mean Temperature 48 °F -  
Max Temperature 53 °F 40 °F 55 °F (1973)
Min Temperature 42 °F 27 °F 8 °F (2004)
Degree Days  
Heating Degree Days 18    
Moisture  
Dew Point 44 °F    
Average Humidity 86    
Maximum Humidity 100    
Minimum Humidity 65    
Precipitation  
Precipitation 0.67 in - - ()
Sea Level Pressure  
Sea Level Pressure 29.45 in    
Wind  
Wind Speed 13 mph (SSE)    
Max Wind Speed 25 mph    
Max Gust Speed 41 mph    
Visibility 7 miles    
Events Fog , Rain    
Averages and records for this station are not official NWS values.
T = Trace of Precipitation, MM = Missing Value Source: NWS Daily Summary

Daily Weather History Graph

Daily Weather History Graph

Search for Another Location

Airport or City:

Trip Planner

Search our weather history database for the weather conditions in past years. The results will help you decide how hot, cold, wet, or windy it might be!

Date:

Astronomy

Dec. 21, 2012 Rise Set
Actual Time 7:03 AM EST 4:12 PM EST
Civil Twilight 6:32 AM EST 4:44 PM EST
Nautical Twilight 5:57 AM EST 5:19 PM EST
Astronomical Twilight 5:23 AM EST 5:53 PM EST
Moon 12:01 PM EST (12/21) 12:43 AM EST (12/21)
Length of Visible Light 10h 12m
Length of Day
9h 09m
Waxing Gibbous, 64% of the Moon is Illuminated
Dec 21
Waxing Gibbous
Dec 28
Full
Jan 4
Last Quarter
Jan 11
New
Jan 18
First Quarter

Hourly Weather History & Observations

Time (EST) Temp. Windchill Dew Point Humidity Pressure Visibility Wind Dir Wind Speed Gust Speed Precip Events Conditions
12:52 AM 42.1 °F 40.2 °F 39.0 °F 89% 30.04 in 7.0 mi South 3.5 mph - 0.00 in Rain Light Rain
1:52 AM 43.0 °F 37.7 °F 39.0 °F 86% 29.97 in 10.0 mi East 9.2 mph - 0.01 in   Overcast
1:59 AM 42.8 °F 36.6 °F 39.2 °F 87% 29.95 in 10.0 mi East 11.5 mph - N/A   Overcast
2:52 AM 44.1 °F 39.0 °F 39.0 °F 82% 29.95 in 10.0 mi SE 9.2 mph - N/A   Overcast
3:52 AM 45.0 °F 38.9 °F 37.0 °F 74% 29.91 in 10.0 mi SE 12.7 mph 20.7 mph N/A   Overcast
4:52 AM 45.0 °F 38.5 °F 37.0 °F 74% 29.85 in 10.0 mi ESE 13.8 mph 21.9 mph N/A   Overcast
5:19 AM 44.6 °F 37.8 °F 37.4 °F 76% 29.81 in 10.0 mi East 15.0 mph 21.9 mph N/A   Overcast
5:52 AM 45.0 °F 38.5 °F 37.9 °F 76% 29.82 in 10.0 mi ESE 13.8 mph 24.2 mph N/A   Overcast
6:52 AM 46.0 °F 38.5 °F 39.0 °F 76% 29.72 in 10.0 mi ESE 19.6 mph 38.0 mph N/A   Overcast
7:52 AM 46.9 °F - 41.0 °F 80% 29.69 in 10.0 mi ESE 19.6 mph 29.9 mph N/A   Overcast
8:03 AM 46.4 °F 39.2 °F 42.8 °F 87% 29.67 in 10.0 mi ESE 18.4 mph 29.9 mph N/A   Overcast
8:32 AM 48.2 °F - 42.8 °F 82% 29.66 in 10.0 mi ESE 20.7 mph 32.2 mph N/A   Overcast
8:52 AM 48.0 °F - 44.1 °F 86% 29.65 in 9.0 mi ESE 17.3 mph 32.2 mph 0.00 in Rain Light Rain
9:05 AM 48.2 °F - 44.6 °F 87% 29.62 in 7.0 mi ESE 17.3 mph 33.4 mph 0.00 in Rain Light Rain
9:52 AM 48.9 °F - 46.0 °F 90% 29.58 in 7.0 mi ESE 20.7 mph 36.8 mph 0.02 in   Overcast
10:09 AM 50.0 °F - 46.4 °F 87% 29.55 in 8.0 mi ESE 21.9 mph 31.1 mph N/A   Overcast
10:16 AM 50.0 °F - 46.4 °F 87% 29.53 in 8.0 mi ESE 20.7 mph 33.4 mph N/A   Overcast
10:52 AM 51.1 °F - 46.9 °F 86% 29.48 in 7.0 mi ESE 19.6 mph 35.7 mph 0.01 in Rain Light Rain
11:52 AM 52.0 °F - 48.9 °F 89% 29.38 in 4.0 mi SE 18.4 mph 34.5 mph 0.05 in Rain Light Rain
12:52 PM 53.1 °F - 50.0 °F 89% 29.27 in 5.0 mi SE 18.4 mph 38.0 mph 0.01 in Rain Light Rain
1:28 PM 53.6 °F - 50.0 °F 88% 29.22 in 2.5 mi SE 25.3 mph 38.0 mph 0.01 in Rain Light Rain
1:40 PM 53.6 °F - 51.8 °F 94% 29.21 in 3.0 mi SE 21.9 mph 40.3 mph 0.01 in Rain Light Rain
1:50 PM 53.6 °F - 51.8 °F 94% 29.19 in 2.0 mi SE 18.4 mph 41.4 mph 0.03 in Rain Light Rain
1:52 PM 53.1 °F - 51.1 °F 93% 29.19 in 2.0 mi SE 18.4 mph 41.4 mph 0.03 in Rain Rain
2:07 PM 53.6 °F - 51.8 °F 94% 29.18 in 1.5 mi SE 18.4 mph 40.3 mph 0.04 in Rain Rain
2:35 PM 53.6 °F - 51.8 °F 94% 29.21 in 1.2 mi South 13.8 mph 32.2 mph 0.16 in Rain Rain
2:40 PM 51.8 °F - 51.8 °F 100% 29.20 in 0.5 mi SSW 15.0 mph 28.8 mph 0.32 in Fog , Rain Heavy Rain
2:45 PM 51.8 °F - 51.8 °F 100% 29.21 in 0.2 mi SSW 13.8 mph 29.9 mph 0.43 in Fog , Rain Heavy Rain
2:48 PM 51.8 °F - 51.8 °F 100% 29.22 in 0.5 mi SSW 10.4 mph 29.9 mph 0.44 in Fog , Rain Heavy Rain
2:52 PM 51.1 °F - 51.1 °F 100% 29.21 in 0.8 mi SSW 10.4 mph 29.9 mph 0.48 in Rain Rain
3:05 PM 51.8 °F - 50.0 °F 94% 29.20 in 1.5 mi South 6.9 mph - 0.05 in Rain Rain
3:08 PM 51.8 °F - 50.0 °F 94% 29.20 in 2.0 mi SSW 6.9 mph - 0.06 in Rain Light Rain
3:17 PM 51.8 °F - 50.0 °F 94% 29.20 in 5.0 mi SSW 8.1 mph - 0.06 in Rain Light Rain
3:25 PM 50.0 °F - 48.2 °F 94% 29.20 in 5.0 mi SW 6.9 mph - 0.06 in   Overcast
3:52 PM 50.0 °F - 46.9 °F 89% 29.21 in 7.0 mi SSW 8.1 mph - 0.06 in   Overcast
5:52 PM 46.0 °F 41.4 °F 42.1 °F 86% 29.24 in 10.0 mi SW 9.2 mph 16.1 mph 0.00 in   Mostly Cloudy
6:52 PM 45.0 °F 39.3 °F 39.9 °F 82% 29.25 in 10.0 mi SW 11.5 mph 23.0 mph N/A   Overcast
7:52 PM 44.1 °F 37.4 °F 36.0 °F 73% 29.26 in 10.0 mi SW 13.8 mph 31.1 mph N/A   Partly Cloudy
8:52 PM 43.0 °F 35.7 °F 34.0 °F 71% 29.27 in 10.0 mi WSW 15.0 mph 27.6 mph N/A   Partly Cloudy
9:52 PM 42.1 °F 35.2 °F 33.1 °F 70% 29.29 in 10.0 mi WSW 12.7 mph 31.1 mph N/A   Mostly Cloudy
10:52 PM 42.1 °F 34.5 °F 30.9 °F 65% 29.30 in 10.0 mi WSW 15.0 mph 27.6 mph N/A   Overcast
11:52 PM 42.1 °F 36.1 °F 30.9 °F 65% 29.29 in 10.0 mi WSW 10.4 mph 19.6 mph N/A   Overcast